sat.trackr.live / text

‹ back to catalog

STARLINK-35856

NORAD 67013 · 2025-293L

PAYLOAD ACTIVE UNKNOWN

§ Identity

Operator
Country
US
Launch date
2025-12-10
Launch site
AFWTR
Launch vehicle
Mass (kg)
RCS (m²)

Purposes: comms

External: N2YO · Heavens-Above · Gunter

§ Orbital elements

Epoch: 2026-09-20T11:42:47.494080Z

Period
96.11 min
Inclination
70.0080°
Eccentricity
0.0002796
Mean motion
14.98317863 rev/d
Perigee alt
570.2 km
Apogee alt
574.0 km
Semi-major
6,950.2 km
B*
-2.1232e-4
RAAN
323.4270°
Arg perigee
290.4792°
Mean anomaly
69.6067°
Rev number
4,406

§ Raw data

STARLINK-358561 67013U 25293L   26263.48804970 -.00002624  00000+0 -21232-3 0  99952 67013  70.0080 323.4270 0002796 290.4792  69.6067 14.98317863 44060

JSON: /api/v1/satellites/67013 · /tle

For live sub-satellite position, see the globe view (requires WebGL).

§ Visibility from observer

Set your observer location to see the next 7 days of passes ≥ 10°. The values pass through the URL so the page stays shareable.

No JS? Fill the form by hand. The geolocation button needs JavaScript.